Hourly Data Report for November 22, 2019

VICTORIA UNIVERSITY CS
BRITISH COLUMBIA
Current Station Operator: ECCC - MSC

48°27'25.200" N
123°18'16.600" W
60.10 m
1018598
71783
WYJ

Download Data

Hourly Data (November 2019)
Hourly Data Report for November 22, 2019
TIME
LST
Temp Definition
°C
Dew Point Definition
°C
Rel Hum Definition
%
Precip. Amount Definition
mm

Wind Dir Definition
10's deg

Wind Spd Definition
km/h
Visibility Definition
km
Stn Press Definition
kPa
Hmdx Definition


Wind Chill Definition


Weather Definition


00:00 4.6 4.1 97 0.0 36 6   101.25     LegendNANA
01:00 4.2 3.6 96 0.0 31 3   101.31     LegendNANA
02:00 4.5 3.8 95 0.0 35 4   101.36     LegendNANA
03:00 4.0 3.4 96 0.0 1 4   101.38     LegendNANA
04:00 4.7 4.0 95 0.0 33 5   101.49     LegendNANA
05:00 4.7 3.9 95 0.0 30 4   101.51     LegendNANA
06:00 5.0 4.3 95 0.0 33 5   101.53     LegendNANA
07:00 5.2 4.2 93 0.0 34 4   101.63     LegendNANA
08:00 5.1 3.9 92 0.0 29 2   101.71     LegendNANA
09:00 4.5 3.9 96 0.0 25 2   101.78     LegendNANA
10:00 6.8 4.6 86 0.0 8 2   101.82     LegendNANA
11:00 6.8 4.6 86 0.0 9 1   101.79     LegendNANA
12:00 6.8 4.3 84 0.0 35 5   101.84     LegendNANA
13:00 7.8 4.0 77 0.0 9 3   101.81     LegendNANA
14:00 7.9 4.2 77 0.0 10 3   101.81     LegendNANA
15:00 6.8 4.1 83 0.0 16 2   101.77     LegendNANA
16:00 6.1 4.3 88 0.0   0   101.85     LegendNANA
17:00 4.6 3.7 93 0.0 18 2   101.86     LegendNANA
18:00 4.9 4.2 95 0.0 16 4   101.84     LegendNANA
19:00 4.1 3.6 96 0.0 19 3   101.85     LegendNANA
20:00 4.7 4.3 97 0.0 17 4   101.87     LegendNANA
21:00 5.6 5.0 96 0.0 0 1   101.86     LegendNANA
22:00 6.7 5.4 92 0.0 15 5   101.82     LegendNANA
23:00 6.9 5.8 93 0.0 16 4   101.90     LegendNANA

Notes on Data Quality.

Legend

  • E = Estimated
  • M = Missing
  • NA = Not Available*
  • [empty] = Indicates an unobserved value
Date modified: